This is the latest recevied weather packets stored in our database for station/object SP3ZBZ-13. If no packets are shown the sender has not sent any weather packets the latest 10 day(s).
| Time | Temp. | Humidity | Pressure | Rain* | Wind** | Luminosity | Snow |
|---|---|---|---|---|---|---|---|
| 1788242666 | 15° C | 86% | 1009 hPa | - | - | 44 W/m² | - |
| 1788241765 | 15° C | 86% | 1008.9 hPa | - | - | 19 W/m² | - |
| 1788240864 | 15° C | 86% | 1008.7 hPa | - | - | 26 W/m² | - |
| 1788239963 | 15° C | 86% | 1008.7 hPa | - | - | 30 W/m² | - |
| 1788239062 | 15° C | 85% | 1008.6 hPa | - | - | 19 W/m² | - |
| 1788238161 | 15° C | 85% | 1008.5 hPa | - | - | 41 W/m² | - |
| 1788237261 | 15° C | 85% | 1008.5 hPa | - | - | 23 W/m² | - |
| 1788236360 | 15° C | 84% | 1008.5 hPa | - | - | 9 W/m² | - |
| 1788235458 | 15° C | 84% | 1008.4 hPa | - | - | 3 W/m² | - |
| 1788234557 | 15° C | 84% | 1008.3 hPa | - | - | - | - |
| 1788233656 | 15° C | 84% | 1008.2 hPa | - | - | - | - |
| 1788232774 | 15° C | 84% | 1008.1 hPa | - | - | - | - |
| 1788231854 | 15.56° C | 82% | 1008.1 hPa | - | - | - | - |
| 1788230953 | 15.56° C | 82% | 1008 hPa | - | - | - | - |
| 1788230053 | 15.56° C | 81% | 1007.9 hPa | - | - | - | - |
| 1788229152 | 15.56° C | 80% | 1008 hPa | - | - | - | - |
| 1788228251 | 15.56° C | 79% | 1007.8 hPa | - | - | - | - |
| 1788227350 | 16.11° C | 78% | 1007.8 hPa | - | - | - | - |
| 1788226449 | 16.11° C | 77% | 1007.7 hPa | - | - | - | - |
| 1788225548 | 16.11° C | 77% | 1007.6 hPa | - | - | - | - |
| 1788224647 | 16.67° C | 74% | 1007.7 hPa | - | - | - | - |
| 1788223746 | 16.67° C | 74% | 1007.8 hPa | - | - | - | - |
| 1788222845 | 17.22° C | 74% | 1007.8 hPa | - | - | - | - |
| 1788221944 | 17.22° C | 74% | 1007.7 hPa | - | - | - | - |
| 1788221043 | 16.67° C | 76% | 1007.8 hPa | - | - | - | - |
* Rain since midnight (hover to see other rain measurements)
** Current wind speed in m/s (hover to see current wind gust speed)